TAP1907 LPPT-LPFR

Flight info

Callsign TAP1907
Flight time 0h 30m
Altitude 21000
Route DUZOP DCT ODEMI
Aircraft A319/M-SDE3FGHIJ1RWXYZ/LB1

Departure

Time 2026-05-06 19:34
Airport Lisbon Humberto Delgado Airport (LPPT)

Arrival

Time 2026-05-06 20:04
Airport Faro - Gago Coutinho International Airport (LPFR)
Time Latitude Longitude Altitude Speed Heading
2026-05-06 19:02 38.76761 -9.13006 337 ft 0 kts 78°
2026-05-06 19:25 38.76758 -9.13025 332 ft 4 kts 77°
2026-05-06 19:25 38.76751 -9.13058 334 ft 4 kts 70°
2026-05-06 19:25 38.76740 -9.13088 336 ft 4 kts 41°
2026-05-06 19:25 38.76726 -9.13097 334 ft 0 kts 348°
2026-05-06 19:28 38.76755 -9.13106 335 ft 8 kts 347°
2026-05-06 19:28 38.76779 -9.13167 339 ft 11 kts 263°
2026-05-06 19:28 38.76763 -9.13273 341 ft 13 kts 258°
2026-05-06 19:29 38.76739 -9.13378 346 ft 13 kts 239°
2026-05-06 19:29 38.76671 -9.13447 352 ft 12 kts 216°
2026-05-06 19:29 38.76644 -9.13547 355 ft 13 kts 258°
2026-05-06 19:29 38.76625 -9.13659 351 ft 13 kts 258°
2026-05-06 19:30 38.76607 -9.13776 346 ft 14 kts 258°
2026-05-06 19:30 38.76586 -9.13902 354 ft 15 kts 258°
2026-05-06 19:30 38.76551 -9.14024 348 ft 15 kts 231°
2026-05-06 19:30 38.76496 -9.14130 346 ft 15 kts 258°
2026-05-06 19:31 38.76515 -9.14235 339 ft 8 kts 292°
2026-05-06 19:31 38.76536 -9.14299 336 ft 2 kts 293°
2026-05-06 19:31 38.76536 -9.14300 336 ft 0 kts 293°
2026-05-06 19:32 38.76538 -9.14307 336 ft 3 kts 293°
2026-05-06 19:32 38.76552 -9.14348 333 ft 7 kts 293°
2026-05-06 19:32 38.76583 -9.14413 334 ft 9 kts 332°
2026-05-06 19:33 38.76618 -9.14403 333 ft 0 kts 21°
2026-05-06 19:33 38.76642 -9.14390 335 ft 25 kts 22°
2026-05-06 19:33 38.77063 -9.14165 353 ft 102 kts 22°
2026-05-06 19:33 38.77905 -9.13714 369 ft 161 kts 21°
2026-05-06 19:34 38.78967 -9.13130 999 ft 162 kts 17°
2026-05-06 19:34 38.79994 -9.12576 1830 ft 159 kts 18°
2026-05-06 19:34 38.81033 -9.12024 2450 ft 170 kts 18°
2026-05-06 19:34 38.82159 -9.11271 2818 ft 197 kts 27°
2026-05-06 19:35 38.83408 -9.10314 3319 ft 221 kts 28°
2026-05-06 19:35 38.84797 -9.09246 3858 ft 245 kts 28°
2026-05-06 19:35 38.86269 -9.08084 4635 ft 258 kts 33°
2026-05-06 19:35 38.87498 -9.06353 5498 ft 270 kts 60°
2026-05-06 19:36 38.88048 -9.04046 6466 ft 275 kts 86°
2026-05-06 19:36 38.87777 -9.01615 7416 ft 279 kts 112°
2026-05-06 19:36 38.86809 -8.99444 8381 ft 283 kts 129°
2026-05-06 19:36 38.85325 -8.97783 9340 ft 286 kts 149°
2026-05-06 19:37 38.83617 -8.96425 10231 ft 293 kts 149°
2026-05-06 19:37 38.81808 -8.94998 10612 ft 317 kts 149°
2026-05-06 19:37 38.79862 -8.93463 10948 ft 340 kts 149°
2026-05-06 19:37 38.77815 -8.91843 11602 ft 350 kts 149°
2026-05-06 19:38 38.75732 -8.90191 12373 ft 355 kts 150°
2026-05-06 19:38 38.73617 -8.88513 13185 ft 360 kts 150°
2026-05-06 19:38 38.71477 -8.86822 13965 ft 364 kts 150°
2026-05-06 19:38 38.69311 -8.85117 14703 ft 367 kts 151°
2026-05-06 19:39 38.67130 -8.83402 15454 ft 369 kts 151°
2026-05-06 19:39 38.64929 -8.81673 16196 ft 373 kts 150°
2026-05-06 19:39 38.62710 -8.79928 16927 ft 376 kts 150°
2026-05-06 19:39 38.60473 -8.78168 17644 ft 379 kts 150°
2026-05-06 19:40 38.58217 -8.76392 18334 ft 383 kts 151°
2026-05-06 19:40 38.55938 -8.74600 18952 ft 386 kts 151°
2026-05-06 19:40 38.53637 -8.72794 19573 ft 390 kts 151°
2026-05-06 19:40 38.51318 -8.70978 20193 ft 393 kts 151°
2026-05-06 19:41 38.48971 -8.69144 20737 ft 397 kts 151°
2026-05-06 19:41 38.46613 -8.67305 20902 ft 398 kts 151°
2026-05-06 19:41 38.44206 -8.65431 20945 ft 412 kts 151°
2026-05-06 19:41 38.41741 -8.63510 20943 ft 417 kts 151°
2026-05-06 19:42 38.39264 -8.61575 20938 ft 418 kts 151°
2026-05-06 19:42 38.36750 -8.59607 20939 ft 419 kts 151°
2026-05-06 19:42 38.34300 -8.57691 20939 ft 418 kts 151°
2026-05-06 19:42 38.31814 -8.55752 20936 ft 418 kts 151°
2026-05-06 19:43 38.29332 -8.53820 20938 ft 418 kts 151°
2026-05-06 19:43 38.26845 -8.51886 20933 ft 418 kts 151°
2026-05-06 19:43 38.24363 -8.49956 20934 ft 418 kts 151°
2026-05-06 19:43 38.21879 -8.48028 20932 ft 418 kts 151°
2026-05-06 19:44 38.19392 -8.46102 20928 ft 418 kts 151°
2026-05-06 19:44 38.16909 -8.44182 20927 ft 418 kts 151°
2026-05-06 19:44 38.14427 -8.42261 20923 ft 418 kts 151°
2026-05-06 19:44 38.11944 -8.40337 20924 ft 418 kts 151°
2026-05-06 19:45 38.09461 -8.38416 20919 ft 418 kts 151°
2026-05-06 19:45 38.06978 -8.36498 20913 ft 418 kts 152°
2026-05-06 19:45 38.04493 -8.34583 20909 ft 418 kts 152°
2026-05-06 19:45 38.02013 -8.32673 20908 ft 418 kts 152°
2026-05-06 19:46 37.99528 -8.30755 20905 ft 418 kts 152°
2026-05-06 19:46 37.97174 -8.28942 20902 ft 418 kts 152°
2026-05-06 19:46 37.94692 -8.27032 20901 ft 418 kts 152°
2026-05-06 19:46 37.92205 -8.25121 20900 ft 417 kts 152°
2026-05-06 19:47 37.89726 -8.23215 20899 ft 417 kts 152°
2026-05-06 19:47 37.87242 -8.21305 20899 ft 417 kts 152°
2026-05-06 19:47 37.84760 -8.19401 20898 ft 417 kts 152°
2026-05-06 19:47 37.82274 -8.17500 20899 ft 417 kts 152°
2026-05-06 19:48 37.79790 -8.15604 20901 ft 417 kts 152°
2026-05-06 19:48 37.77302 -8.13703 20900 ft 418 kts 152°
2026-05-06 19:48 37.74824 -8.11810 20907 ft 410 kts 152°
2026-05-06 19:48 37.72421 -8.09971 20926 ft 401 kts 152°
2026-05-06 19:49 37.70041 -8.08155 20770 ft 398 kts 152°
2026-05-06 19:49 37.67653 -8.06335 19707 ft 407 kts 152°
2026-05-06 19:49 37.65193 -8.04468 18652 ft 416 kts 152°
2026-05-06 19:49 37.62718 -8.02590 17856 ft 415 kts 152°
2026-05-06 19:50 37.60259 -8.00722 17266 ft 408 kts 152°
2026-05-06 19:50 37.57852 -7.98889 16750 ft 401 kts 151°
2026-05-06 19:50 37.55474 -7.97080 16212 ft 397 kts 151°
2026-05-06 19:50 37.53124 -7.95287 15663 ft 393 kts 151°
2026-05-06 19:51 37.50795 -7.93512 15099 ft 389 kts 151°
2026-05-06 19:51 37.48490 -7.91758 14537 ft 386 kts 151°
2026-05-06 19:51 37.46201 -7.90023 13958 ft 382 kts 152°
2026-05-06 19:51 37.43935 -7.88311 13441 ft 377 kts 151°
2026-05-06 19:52 37.41704 -7.86628 12848 ft 371 kts 151°
2026-05-06 19:52 37.39503 -7.84970 12260 ft 367 kts 151°
2026-05-06 19:52 37.37326 -7.83329 11663 ft 362 kts 151°
2026-05-06 19:52 37.35176 -7.81709 11068 ft 359 kts 150°
2026-05-06 19:53 37.33089 -7.80137 10760 ft 347 kts 150°
2026-05-06 19:53 37.31047 -7.78597 10631 ft 331 kts 150°
2026-05-06 19:53 37.29114 -7.77137 10507 ft 317 kts 150°
2026-05-06 19:53 37.27258 -7.75737 10385 ft 305 kts 150°
2026-05-06 19:54 37.25475 -7.74393 10230 ft 294 kts 150°
2026-05-06 19:54 37.23734 -7.73084 9959 ft 289 kts 150°
2026-05-06 19:54 37.22020 -7.71797 9841 ft 286 kts 150°
2026-05-06 19:54 37.20309 -7.70516 9562 ft 288 kts 150°
2026-05-06 19:55 37.18574 -7.69217 9078 ft 289 kts 149°
2026-05-06 19:55 37.16866 -7.67938 8679 ft 284 kts 149°
2026-05-06 19:55 37.15171 -7.66668 8139 ft 283 kts 149°
2026-05-06 19:55 37.13490 -7.65410 7551 ft 280 kts 148°
2026-05-06 19:56 37.11821 -7.64159 6909 ft 278 kts 147°
2026-05-06 19:56 37.10130 -7.62987 6252 ft 278 kts 156°
2026-05-06 19:56 37.08253 -7.62427 5551 ft 280 kts 175°
2026-05-06 19:56 37.06358 -7.62666 5224 ft 267 kts 194°
2026-05-06 19:57 37.04695 -7.63484 5068 ft 247 kts 203°
2026-05-06 19:57 37.03160 -7.64333 4961 ft 236 kts 203°
2026-05-06 19:57 37.01690 -7.65136 4859 ft 226 kts 202°
2026-05-06 19:57 37.00256 -7.65916 4750 ft 223 kts 202°
2026-05-06 19:58 36.98874 -7.66788 4639 ft 223 kts 218°
2026-05-06 19:58 36.97936 -7.68252 4539 ft 212 kts 248°
2026-05-06 19:58 36.97684 -7.70031 4185 ft 212 kts 278°
2026-05-06 19:58 36.97902 -7.71856 3877 ft 211 kts 282°
2026-05-06 19:59 36.98154 -7.73640 3543 ft 204 kts 282°
2026-05-06 19:59 36.98397 -7.75329 3280 ft 191 kts 283°
2026-05-06 19:59 36.98626 -7.76919 3031 ft 179 kts 283°
2026-05-06 19:59 36.98836 -7.78384 2797 ft 164 kts 284°
2026-05-06 20:00 36.99030 -7.79731 2593 ft 151 kts 285°
2026-05-06 20:00 36.99209 -7.80981 2397 ft 142 kts 285°
2026-05-06 20:00 36.99377 -7.82155 2216 ft 131 kts 287°
2026-05-06 20:00 36.99535 -7.83249 2042 ft 125 kts 286°
2026-05-06 20:01 36.99687 -7.84310 1873 ft 123 kts 287°
2026-05-06 20:01 36.99836 -7.85353 1713 ft 121 kts 287°
2026-05-06 20:01 36.99985 -7.86384 1554 ft 120 kts 287°
2026-05-06 20:01 37.00138 -7.87407 1389 ft 120 kts 287°
2026-05-06 20:02 37.00283 -7.88434 1235 ft 119 kts 285°
2026-05-06 20:02 37.00431 -7.89468 1049 ft 122 kts 287°
2026-05-06 20:02 37.00570 -7.90476 888 ft 120 kts 285°
2026-05-06 20:02 37.00732 -7.91505 748 ft 122 kts 284°
2026-05-06 20:03 37.00872 -7.92553 563 ft 122 kts 282°
2026-05-06 20:03 37.01020 -7.93599 444 ft 122 kts 283°
2026-05-06 20:03 37.01164 -7.94609 273 ft 122 kts 283°
2026-05-06 20:03 37.01311 -7.95658 110 ft 122 kts 282°
2026-05-06 20:04 37.01407 -7.96343 36 ft 118 kts 281°
2026-05-06 20:04 37.01524 -7.97157 21 ft 59 kts 280°
2026-05-06 20:04 37.01574 -7.97513 19 ft 35 kts 279°
2026-05-06 20:04 37.01612 -7.97787 19 ft 25 kts 279°
2026-05-06 20:05 37.01696 -7.97841 20 ft 14 kts 32°
2026-05-06 20:05 37.01752 -7.97735 21 ft 15 kts 69°
2026-05-06 20:05 37.01769 -7.97602 20 ft 16 kts 91°
2026-05-06 20:05 37.01751 -7.97463 20 ft 17 kts 100°
2026-05-06 20:06 37.01731 -7.97319 20 ft 17 kts 100°
2026-05-06 20:06 37.01711 -7.97176 20 ft 16 kts 100°
2026-05-06 20:06 37.01693 -7.97052 20 ft 14 kts 100°
2026-05-06 20:06 37.01682 -7.96936 20 ft 13 kts 77°
2026-05-06 20:07 37.01763 -7.96895 20 ft 14 kts 10°
2026-05-06 20:07 37.01839 -7.96865 20 ft 8 kts 15°
2026-05-06 20:07 37.01888 -7.96854 20 ft 5 kts 10°
2026-05-06 20:07 37.01912 -7.96848 20 ft 2 kts
2026-05-06 20:08 37.01916 -7.96848 20 ft 0 kts